Preview of NWS' New Version of Forecast
This preview is not operational and should not be used for support decisions.

Regional Weather Roundup (RWR)

Issued by Gray - Portland, ME (GYX)

                            
000
ASUS41 KGYX 210205
RWRGYX
WEATHER ROUNDUP FOR MAINE AND NEW HAMPSHIRE
NATIONAL WEATHER SERVICE GRAY ME
900 PM EST SUN JAN 20 2019

MEZ002-005-006-010-012-015-018-020-021-024-026-027-029-210300-
MAINE
  
CITY           SKY/WX    TMP DP  RH WIND       PRES   REMARKS
PORTLAND       CLOUDY    18  11  74 NW17      29.33R WCI   3          
SANFORD        CLOUDY    15   9  76 W15G21    29.33S WCI   0          
BAR HARBOR     LGT SNOW  12  10  92 N14G24    29.21S VSB 1   WCI  -3  
WISCASSET      CLOUDY    13   8  81 VRB6      29.31R                  
ROCKLAND       FLURRIES  13   8  81 NW10G20   29.24S WCI   0          
FRYEBURG       CLOUDY    15  12  88 CALM      29.31R                  
LEWISTONAUBURN CLOUDY    14   6  70 N14       29.32R WCI  -1          
AUGUSTA        CLOUDY    11   5  77 NW18      29.31S WCI  -7          
WATERVILLE     FLURRIES N/A N/A N/A MISG        N/A                   
BANGOR         LGT SNOW  12   9  87 NW10      29.27F VSB 3/4 WCI  -1  
GREENVILLE       N/A      2  -5  72 NW20G30   29.24S WCI -19          
MILLINOCKET    LGT SNOW  10   6  84 NW8       29.30F FOG              
HOULTON        SNOW      14  11  87 N14       29.23F VSB 1/2 WCI  -1  
PRESQUE ISLE   LGT SNOW  12  10  92 N21G28    29.32F VSB 3/4 WCI  -6  
FRENCHVILLE    LGT SNOW  10   4  76 MISG      29.37F VSB 3/4          
CARIBOU        SNOW      13   8  81 N22G32    29.33F VSB 1/2 WCI  -6  
$$

NHZ002-005-008-009-011-012-014-210300-
NEW HAMPSHIRE
  
CITY           SKY/WX    TMP DP  RH WIND       PRES   REMARKS
PORTSMOUTH     CLOUDY    16   6  64 W15G23    29.35R WCI   1          
ROCHESTER      CLOUDY    13   4  67 W13G21    29.34R WCI  -2          
NASHUA         FAIR      12   3  67 NW20G26   29.46R WCI  -6          
MANCHESTER     FAIR      11  -2  56 NW17G32   29.44R WCI  -6          
CONCORD        FAIR       5  -4  66 NW22G38   29.46R WCI -16          
LACONIA        FLURRIES   5  -4  66 W20G28    29.40R WCI -15          
PLYMOUTH       FAIR       3  -7  63 NW20G32   29.48R HAZE    WCI -18  
BERLIN         CLOUDY     2  -5  72 VRB6      29.45R                  
WHITEFIELD     CLOUDY     1  -5  75 W6        29.51R                  
JAFFREY        FAIR       6  -4  63 MISG      29.44R                  
KEENE          FAIR       4  -7  60 NW12G25   29.56R WCI -12          
LEBANON        FAIR       2 -11  54 NW12      29.58R WCI -15          
MT WASHINGTON  MOCLDY     7   1  78 W24         N/A  WCI -15          
$$

VTZ005-007-008-210300-
VERMONT
  
CITY           SKY/WX    TMP DP  RH WIND       PRES   REMARKS
ST JOHNSBURY     N/A     -1  -9  68 MISG      29.58R                  
MONTPELIER     CLOUDY    -5 -10  79 NW15G23   29.61R HAZE    WCI -26  
BURLINGTON     LGT SNOW   0  -6  76 N7        29.74S FOG              
$$

MAZ007-012-024-CTZ003-RIZ002-NYZ038-NYZ072-210300-
SOUTHERN NEW ENGLAND AND NY
  
CITY           SKY/WX    TMP DP  RH WIND       PRES   REMARKS
BOSTON         MOCLDY    20  10  65 W22G31    29.40R WCI   3          
WORCESTER      FAIR       8   0  69 NW21G36   29.40R WCI -12          
NANTUCKET      CLOUDY    28  24  85 NW20G25   29.36R WCI  15          
PROVIDENCE     FAIR      18  11  74 NW18G30   29.44R WCI   2          
HARTFORD       FAIR       8  -2  63 NW31G40   29.57R WCI -15          
ALBANY         FLURRIES   3  -9  57 NW17      29.74R WCI -17          
NEW YORK CITY  FAIR      18   6  59 NW32G43   29.68R WCI  -2          
$$

ANZ081-ANZ082-ANZ150-NHZ014-MEZ023>029-210300-
COASTAL MARINE OBSERVATIONS
  
STATION/POSITION TIME  TEMP    WIND        PRES    WAVE
                       AIR SEA DIR/SP/G            HT/PER
                 (UTC) (F)     (DEG/KT/KT) (MB)    (FT/S)
MOUNT DESERT ROC 0200   21     310/ 18/ 20  987.5R
MATINICUS ROCK   0100   19     330/ 26/ 29  988.2R
ISLE OF SHOALS   0100   23     300/ 10/ 12  993.1R
JEFFREYS LEDGE   0138      42                N/A     9/ 9
CASHES LEDGE BUO 0150   25 40               989.8R  10/ 9
$$

.............KEY..............
   WCI - WIND CHILL
   TC  - TEMPERATURE IN CELSIUS
   VSB - VISIBILITY IN MILES
   HX  - HEAT INDEX
   FAIR- INDICATES FEW OR NO CLOUDS BELOW 12,000 FT, WITH NO 
         SIGNIFICANT WEATHER AND/OR OBSTRUCTIONS TO VISIBILITY.